Location: Lecco
(45.8566°N, 9.3977°E)
Time: 04:05:55
(UTC+02:00)

Transit 2A - Visible Passes

Search period start: 08 May 2021 00:00
Search period end: 18 May 2021 00:00
Orbit: 602 x 957 km, 66.7° (Epoch: 07 May)

Date Brightness Start Highest point End Pass type
(mag) Time Alt. Az. Time Alt. Az. Time Alt. Az.
08 May 7.6 03:05:56 17° SE 03:07:05 18° ESE 03:10:08 10° ENE visible
08 May 5.9 04:46:25 16° SW 04:49:50 54° NW 04:54:08 10° NNE visible
09 May 8.0 02:32:43 12° ESE 02:33:06 12° ESE 02:34:47 10° E visible
09 May 5.5 04:13:12 27° SW 04:15:37 80° WNW 04:20:00 10° NNE visible
10 May 5.7 03:39:56 39° S 03:41:28 68° ESE 03:45:49 10° NE visible
10 May 7.4 05:21:50 10° W 05:25:00 19° NW 05:28:08 10° N visible
11 May 6.2 03:06:37 40° SE 03:07:20 44° ESE 03:11:31 10° NE visible
11 May 7.1 04:47:05 11° W 04:50:37 25° NW 04:54:16 10° NNE visible
12 May 6.8 02:33:16 29° ESE 02:33:16 29° ESE 02:37:04 10° NE visible
12 May 6.6 04:13:44 19° WSW 04:16:17 35° NW 04:20:18 10° NNE visible
13 May 7.5 01:59:52 19° E 01:59:52 19° E 02:02:24 10° ENE visible
13 May 6.0 03:40:20 32° WSW 03:42:01 50° NW 03:46:16 10° NNE visible
14 May 8.0 01:26:26 12° E 01:26:26 12° E 01:27:14 10° E visible
14 May 5.5 03:06:55 55° WSW 03:07:47 74° NW 03:12:10 10° NNE visible
14 May 7.9 04:49:27 10° WNW 04:51:41 14° NW 04:53:54 10° N visible
15 May 5.4 02:33:27 72° SE 02:33:37 74° ESE 02:37:58 10° NE visible
15 May 7.6 04:14:12 10° W 04:17:13 18° NW 04:20:13 10° N visible
16 May 6.1 01:59:57 46° E 01:59:57 46° E 02:03:42 10° NE visible
16 May 7.3 03:40:24 15° W 03:42:49 24° NW 03:46:22 10° N visible
17 May 6.9 01:26:24 28° E 01:26:24 28° E 01:29:17 10° NE visible
17 May 6.8 03:06:51 25° W 03:08:29 32° NW 03:12:26 10° NNE visible
